Home   Weather   Jerusalem   Past weeks
Flag for Israel

Past Weather in Jerusalem, Israel — Yesterday and Last 2 Weeks

Now
79 °F

Passing clouds.


Feels Like: 82 °F
Forecast: 82 / 68 °F
Wind: 5 mph from North

Location: Ben Gurion International Airport

Current Time: Oct 15, 2019 at 2:37:50 am

Latest Report: Oct 15, 2019 at 1:50 am


Visibility: N/A

Pressure: 29.89 "Hg (27.38 "Hg at 769m altitude)

Humidity: 89%

Dew Point: 75 °F

Location of JerusalemLocation

Past Weather in Jerusalem — Graph

°F

Jerusalem Temperature Yesterday

Maximum temperature yesterday: 91 °F (at 11:50 am)
Minimum temperature yesterday: 75 °F (at 3:50 am)
Average temperature yesterday: 81 °F

High & Low Weather Summary for the Past Weeks

 TemperatureHumidityPressure
High91 °F (Oct 14, 11:50 am)89% (Oct 14, 12:50 am)30.07 "Hg (Oct 14, 12:50 am)
Low68 °F (Oct 5, 4:50 am)35% (Oct 8, 10:50 am)29.80 "Hg (Sep 30, 4:50 pm)
Average78 °F67%29.91 "Hg
* Reported Sep 30 1:20 am — Oct 15 1:20 am, Jerusalem. Weather by CustomWeather, © 2019

Note: Actual official high and low records may vary slightly from our data, if they occured in-between our weather recording intervals... More about our weather records

Advertising

Jerusalem Weather History for the Previous 24 Hours

Scroll right to see more
 ConditionsComfort  
Time TempWeatherWind HumidityBarometerVisibility
1:20 am
Tue, Oct 15
79 °FClear.8 mph89%29.92 "Hg10 mi
12:50 am79 °FClear.7 mph89%29.92 "Hg10 mi
12:20 am79 °FClear.5 mph89%29.95 "Hg10 mi
11:50 pm
Mon, Oct 14
81 °FClear.10 mph84%29.98 "Hg10 mi
11:20 pm81 °FClear.8 mph84%29.95 "Hg10 mi
10:50 pm81 °FPassing clouds.7 mph84%29.95 "HgN/A
10:20 pm81 °FPassing clouds.7 mph84%29.92 "HgN/A
9:50 pm79 °FClear.6 mph89%29.92 "Hg10 mi
9:20 pm81 °FPassing clouds.6 mph84%29.92 "HgN/A
8:50 pm81 °FLight rain. Clear.5 mph84%29.92 "HgN/A
8:20 pm81 °FClear.2 mph84%29.92 "Hg10 mi
7:50 pm81 °FPassing clouds.5 mph84%29.89 "HgN/A
7:20 pm81 °FPassing clouds.5 mph84%29.89 "HgN/A
6:50 pm82 °FPassing clouds.6 mph79%29.89 "HgN/A
6:20 pm82 °FPassing clouds.8 mph79%29.89 "HgN/A
5:50 pm82 °FPassing clouds.9 mph74%29.89 "HgN/A
5:20 pm84 °FSunny.10 mph70%29.89 "Hg10 mi
4:50 pm86 °FSunny.12 mph62%29.89 "Hg10 mi
4:20 pm88 °FSunny.10 mph59%29.89 "Hg10 mi
3:50 pm90 °FSunny.8 mph55%29.89 "Hg10 mi
3:20 pm90 °FSunny.7 mph55%29.89 "Hg10 mi
2:50 pm90 °FPassing clouds.6 mph55%29.92 "HgN/A
2:20 pm88 °FPassing clouds.9 mph59%29.92 "HgN/A
1:50 pm88 °FSunny.13 mph62%29.92 "Hg10 mi
1:20 pm90 °FSunny.14 mph59%29.92 "Hg10 mi
12:50 pm90 °FSunny.12 mph59%29.92 "Hg10 mi
12:20 pm90 °FPassing clouds.6 mph55%29.92 "HgN/A
11:50 am91 °FSunny.5 mph46%29.95 "Hg10 mi
11:20 am90 °FSunny.3 mph52%29.95 "Hg10 mi
10:50 am86 °FSunny.3 mph59%29.95 "Hg10 mi
10:20 am86 °FSunny.2 mph62%29.98 "Hg10 mi
9:50 am82 °FSunny.2 mph66%29.98 "Hg10 mi
9:20 am81 °FSunny.7 mph74%29.98 "Hg10 mi
8:50 am79 °FSunny.5 mph79%29.98 "Hg10 mi
8:20 am77 °FSunny.6 mph79%29.95 "Hg10 mi
7:50 am75 °FSunny.5 mph78%29.95 "Hg10 mi
7:20 am75 °FSunny.6 mph78%29.95 "Hg10 mi
6:50 am75 °FSunny.2 mph78%29.92 "Hg10 mi
6:20 am75 °FClear.6 mph83%29.95 "Hg10 mi
5:50 am75 °FClear.6 mph83%29.92 "Hg10 mi
5:20 am75 °FPassing clouds.6 mph83%29.92 "HgN/A
4:50 am75 °FClear.6 mph83%29.92 "Hg10 mi
4:20 am75 °FClear.6 mph83%29.92 "Hg10 mi
3:50 am75 °FPassing clouds.7 mph83%29.92 "HgN/A
3:20 am77 °FPassing clouds.6 mph83%29.92 "HgN/A
2:50 am77 °FPassing clouds.5 mph83%29.92 "HgN/A
2:20 am77 °FPassing clouds.6 mph83%29.92 "HgN/A
Weather by CustomWeather, © 2019

See weather overview